Date String (YYYY-MM-DD hh:mm:ss) UTC,Instrument flags,absolute air pressure of the measurement (hPa),sample flow rate (lpm),inlet stack bypass flow (lpm),air temperature of the measurement (°C),ambient temperature measured by the external sensor (°C),aerosol sample conditioner tube jacket temperature (°C),OPC LED temperature (°C),internal box temperature (°C),relative humidity of the measurement (%),span deviation,mass concentration of particles derived from Lorenz-Mie calculation of OPC scattering (μg/m³),mass concentration of particles derived from Lorenz-Mie calculation of OPC scattering (μg/m³),mass concentration of particles derived from Lorenz-Mie calculation of OPC scattering (μg/m³)
DateTimeUTC,F1_M11,P_M11,Q1_M11,Q2_M11,T1_M11,T2_M11,T3_M11,T4_M11,T5_M11,U1_M11,ZSPAN_M11,X0_M11,X2_M11,X1_M11
2023-11-08 04:00:00,SystemResetWarning,0824.7,5.00,000.00,028.2,027.2,000.0,036.4,029.6,14.4,0000.0,0009.16,0002.22,0001.24
2023-11-08 04:01:00,SystemResetWarning,0824.8,4.99,000.00,028.2,027.2,000.0,036.4,029.6,14.3,0000.0,0008.74,0002.21,0001.23
2023-11-08 04:02:00,SystemResetWarning,0824.8,5.00,000.00,028.2,027.2,000.0,036.4,029.6,14.4,0000.0,0008.89,0002.19,0001.23
2023-11-08 04:03:00,SystemResetWarning,0824.8,5.00,000.00,028.2,027.2,000.0,036.4,029.6,14.3,0000.0,0008.66,0002.22,0001.23
2023-11-08 04:04:00,SystemResetWarning,0824.8,5.00,000.00,028.2,027.2,000.0,036.5,029.7,14.3,0000.0,0008.58,0002.22,0001.21
2023-11-08 04:05:00,SystemResetWarning,0824.8,5.00,000.00,028.2,027.2,000.0,036.5,029.6,14.3,0000.0,0008.49,0002.17,0001.21
2023-11-08 04:06:00,SystemResetWarning,0824.8,5.00,000.00,028.2,027.2,000.0,036.5,029.6,14.4,0000.0,0008.08,0002.11,0001.20
2023-11-08 04:07:00,SystemResetWarning,0824.8,5.00,000.00,028.2,027.3,000.0,036.5,029.6,14.4,0000.0,0007.88,0002.18,0001.21
2023-11-08 04:08:00,SystemResetWarning,0824.8,5.00,000.00,028.2,027.3,000.0,036.5,029.7,14.4,0000.0,0007.74,0002.28,0001.22
2023-11-08 04:09:00,SystemResetWarning,0824.8,5.00,000.00,028.2,027.3,000.0,036.5,029.7,14.4,0000.0,0007.30,0002.27,0001.21
2023-11-08 04:10:00,SystemResetWarning,0824.8,5.00,000.00,028.2,027.3,000.0,036.5,029.7,14.3,0000.0,0006.80,0002.25,0001.20
2023-11-08 04:11:00,SystemResetWarning,0824.9,5.00,000.00,028.2,027.3,000.0,036.5,029.7,14.3,0000.0,0007.01,0002.38,0001.21
2023-11-08 04:12:00,SystemResetWarning,0824.9,5.00,000.00,028.2,027.3,000.0,036.5,029.7,14.3,0000.0,0007.54,0002.52,0001.23
2023-11-08 04:13:00,SystemResetWarning,0824.9,4.98,000.00,028.2,027.3,000.0,036.6,029.7,14.4,0000.0,0007.88,0002.50,0001.23
2023-11-08 04:14:00,SystemResetWarning,0824.9,4.98,000.00,028.2,027.3,000.0,036.6,029.7,14.4,0000.0,0007.77,0002.49,0001.23
2023-11-08 04:15:00,SystemResetWarning,0824.9,5.00,000.00,028.3,027.3,000.0,036.6,029.7,14.4,0000.0,0008.17,0002.53,0001.24
2023-11-08 04:16:00,SystemResetWarning,0824.9,5.00,000.00,028.3,027.3,000.0,036.6,029.7,14.3,0000.0,0008.43,0002.62,0001.24
2023-11-08 04:17:00,SystemResetWarning,0824.8,5.00,000.00,028.3,027.3,000.0,036.6,029.7,14.3,0000.0,0009.06,0002.65,0001.25
2023-11-08 04:18:00,SystemResetWarning,0824.8,5.00,000.00,028.3,027.3,000.0,036.6,029.7,14.3,0000.0,0009.12,0002.66,0001.24
2023-11-08 04:19:00,SystemResetWarning,0824.8,5.00,000.00,028.3,027.3,000.0,036.6,029.7,14.3,0000.0,0009.38,0002.56,0001.22
2023-11-08 04:20:00,SystemResetWarning,0824.8,5.00,000.00,028.3,027.3,000.0,036.6,029.7,14.2,0000.0,0009.29,0002.58,0001.21
2023-11-08 04:21:00,SystemResetWarning,0824.9,5.00,000.00,028.3,027.3,000.0,036.6,029.7,14.2,0000.0,0009.43,0002.66,0001.22
2023-11-08 04:22:00,SystemResetWarning,0824.9,5.00,000.00,028.3,027.3,000.0,036.6,029.7,14.2,0000.0,0009.44,0002.56,0001.20
2023-11-08 04:23:00,SystemResetWarning,0824.9,5.00,000.00,028.3,027.3,000.0,036.6,029.7,14.1,0000.0,0009.07,0002.43,0001.19
2023-11-08 04:24:00,SystemResetWarning,0824.9,5.00,000.00,028.3,027.3,000.0,036.6,029.7,14.1,0000.0,0008.57,0002.43,0001.19
2023-11-08 04:25:00,SystemResetWarning,0824.9,5.00,000.00,028.3,027.3,000.0,036.6,029.7,14.1,0000.0,0008.34,0002.38,0001.18
2023-11-08 04:26:00,SystemResetWarning,0824.9,5.00,000.00,028.3,027.3,000.0,036.6,029.7,14.1,0000.0,0007.77,0002.31,0001.18
2023-11-08 04:27:00,SystemResetWarning,0824.9,5.00,000.00,028.3,027.3,000.0,036.7,029.7,14.1,0000.0,0008.02,0002.29,0001.17
2023-11-08 04:28:00,SystemResetWarning,0824.9,5.01,000.00,028.3,027.3,000.0,036.7,029.7,14.2,0000.0,0007.76,0002.27,0001.17
2023-11-08 04:29:00,SystemResetWarning,0824.9,5.00,000.00,028.3,027.3,000.0,036.7,029.7,14.2,0000.0,0007.29,0002.23,0001.18
2023-11-08 04:30:00,SystemResetWarning,0824.9,5.00,000.00,028.3,027.3,000.0,036.7,029.7,14.1,0000.0,0006.63,0002.23,0001.20
2023-11-08 04:31:00,SystemResetWarning,0824.9,5.00,000.00,028.3,027.3,000.0,036.7,029.7,14.1,0000.0,0006.54,0002.19,0001.21
2023-11-08 04:32:00,SystemResetWarning,0824.9,5.00,000.00,028.3,027.3,000.0,036.7,029.7,14.1,0000.0,0006.35,0002.13,0001.21
2023-11-08 04:33:00,SystemResetWarning,0824.9,5.00,000.00,028.3,027.3,000.0,036.7,029.7,14.1,0000.0,0006.09,0002.18,0001.21
2023-11-08 04:34:00,SystemResetWarning,0824.9,5.00,000.00,028.3,027.3,000.0,036.7,029.8,14.1,0000.0,0006.23,0002.23,0001.22
2023-11-08 04:35:00,SystemResetWarning,0824.9,5.00,000.00,028.3,027.3,000.0,036.7,029.8,14.1,0000.0,0006.82,0002.23,0001.22
2023-11-08 04:36:00,SystemResetWarning,0824.9,5.00,000.00,028.3,027.4,000.0,036.7,029.8,14.1,0000.0,0007.33,0002.22,0001.21
2023-11-08 04:37:00,SystemResetWarning,0824.9,5.00,000.00,028.4,027.4,000.0,036.7,029.8,14.1,0000.0,0007.33,0002.23,0001.22
2023-11-08 04:38:00,SystemResetWarning,0824.9,5.00,000.00,028.4,027.4,000.0,036.7,029.8,14.1,0000.0,0006.85,0002.21,0001.21
2023-11-08 04:39:00,SystemResetWarning,0824.9,5.00,000.00,028.4,027.4,000.0,036.7,029.8,14.1,0000.0,0005.55,0002.16,0001.22
2023-11-08 04:40:00,SystemResetWarning,0824.9,5.00,000.00,028.4,027.4,000.0,036.7,029.8,14.1,0000.0,0006.03,0002.12,0001.22
2023-11-08 04:41:00,SystemResetWarning,0824.9,5.00,000.00,028.4,027.4,000.0,036.7,029.8,14.1,0000.0,0006.36,0002.18,0001.22
2023-11-08 04:42:00,SystemResetWarning,0824.9,5.00,000.00,028.4,027.4,000.0,036.7,029.8,14.1,0000.0,0006.92,0002.20,0001.21
2023-11-08 04:43:00,SystemResetWarning,0824.9,5.00,000.00,028.4,027.4,000.0,036.7,029.8,14.1,0000.0,0007.66,0002.23,0001.21
2023-11-08 04:44:00,SystemResetWarning,0824.9,4.99,000.00,028.4,027.4,000.0,036.7,029.8,14.1,0000.0,0007.71,0002.21,0001.22
2023-11-08 04:45:00,SystemResetWarning,0824.9,5.02,000.00,028.4,027.4,000.0,036.7,029.8,14.1,0000.0,0007.69,0002.18,0001.21
2023-11-08 04:46:00,SystemResetWarning,0825.0,5.01,000.00,028.4,027.4,000.0,036.8,029.8,14.1,0000.0,0007.29,0002.13,0001.20
2023-11-08 04:47:00,SystemResetWarning,0824.9,4.99,000.00,028.4,027.4,000.0,036.8,029.8,14.1,0000.0,0006.74,0002.17,0001.20
2023-11-08 04:48:00,SystemResetWarning,0824.9,4.99,000.00,028.4,027.4,000.0,036.8,029.8,14.1,0000.0,0006.56,0002.16,0001.19
2023-11-08 04:49:00,SystemResetWarning,0824.9,5.02,000.00,028.4,027.4,000.0,036.8,029.8,14.2,0000.0,0007.06,0002.12,0001.19
2023-11-08 04:50:00,SystemResetWarning,0824.9,5.00,000.00,028.4,027.5,000.0,036.8,029.8,14.2,0000.0,0008.86,0002.20,0001.19
2023-11-08 04:51:00,SystemResetWarning,0824.9,4.98,000.00,028.4,027.5,000.0,036.8,029.9,14.2,0000.0,0008.70,0002.24,0001.18
2023-11-08 04:52:00,SystemResetWarning,0825.0,5.01,000.00,028.4,027.5,000.0,036.8,029.8,14.3,0000.0,0008.80,0002.24,0001.18
2023-11-08 04:53:00,SystemResetWarning,0825.0,5.01,000.00,028.4,027.5,000.0,036.8,029.9,14.3,0000.0,0008.84,0002.31,0001.19
2023-11-08 04:54:00,SystemResetWarning,0825.0,5.00,000.00,028.4,027.5,000.0,036.8,029.8,14.3,0000.0,0008.14,0002.26,0001.18
2023-11-08 04:55:00,SystemResetWarning,0825.0,4.99,000.00,028.4,027.5,000.0,036.8,029.8,14.3,0000.0,0008.70,0002.29,0001.19
2023-11-08 04:56:00,SystemResetWarning,0825.0,5.00,000.00,028.4,027.5,000.0,036.8,029.9,14.3,0000.0,0010.01,0002.33,0001.20
2023-11-08 04:57:00,SystemResetWarning,0824.9,5.00,000.00,028.4,027.5,000.0,036.8,029.9,14.3,0000.0,0011.01,0002.39,0001.21
2023-11-08 04:58:00,SystemResetWarning,0824.9,5.01,000.00,028.4,027.5,000.0,036.8,029.8,14.3,0000.0,0011.25,0002.40,0001.23
2023-11-08 04:59:00,SystemResetWarning,0824.9,5.00,000.00,028.4,027.5,000.0,036.8,029.8,14.3,0000.0,0012.17,0002.54,0001.24
